This demonstration page uses our WeatherBlox Daily Observations layout. Learn more.

41.55636, -103.73856

Hourly Observations for May 9, 2015

Temp ( °F °C ) Dew Point ( °F °C ) Humidity (%) Winds ( mph kmh ) Pressure ( in mb ) Visibility ( mi km ) Precip ( " mm )
12:53 am 00:53 Cloudy 49 9.4 46 7.8 90 90 E 14 22 29.93 1014 10 16.0934 0 0
1:48 am 01:48 Cloudy 48 9 46 8 94 94 E 12 19 29.94 1014 10 16.0934 0 0
1:53 am 01:53 Cloudy 49 9.4 46 7.8 90 90 E 14 22 29.92 1013 10 16.0934 0 0.0254
2:53 am 02:53 Cloudy with Heavy Rain 48 8.9 46 7.8 93 93 E 21 33 29.89 1012 3 4.82802 0.09 2.286
3:04 am 03:04 Cloudy with Heavy Rain 48 9 46 8 94 94 E 23 37 29.91 1013 2.5 4.02335 0 0
3:07 am 03:07 Cloudy with Heavy Rain 48 8.9 46 7.8 93 93 E 23 37 29.91 1013 3 4.82802 0.08 2.032
3:32 am 03:32 Cloudy with Rain 48 9 46 8 94 94 E 20 31 29.91 1013 3 4.82802 0 0
3:47 am 03:47 Cloudy with Heavy Rain 48 9 46 8 94 94 E 18 30 29.91 1013 2.5 4.02335 0.22 5.588
3:53 am 03:53 Cloudy with Heavy Rain 48 8.9 47 8.3 96 96 E 17 28 29.91 1013 2 3.21868 0.25 6.35
4:05 am 04:05 Cloudy with Heavy Rain 48 8.9 47 8.3 96 96 E 5 7 29.91 1013 2.5 4.02335 0.11 2.794
4:12 am 04:12 Cloudy with Heavy Rain 48 9 46 8 94 94 Calm 29.94 1014 1.5 2.41401 0 0
4:28 am 04:28 Cloudy with Heavy Rain 48 9 46 8 94 94 ENE 7 11 29.94 1014 3 4.82802 0 0
4:46 am 04:46 Cloudy with Heavy Rain 48 8.9 47 8.3 96 96 NE 6 9 29.94 1014 2 3.21868 0.5 12.7
4:53 am 04:53 Cloudy with Heavy Rain 48 8.9 47 8.3 96 96 ENE 8 13 29.93 1014 2.5 4.02335 0.57 14.478
5:10 am 05:10 Cloudy with Heavy Rain 48 9 46 8 94 94 Calm 29.94 1014 2 3.21868 0 0
5:18 am 05:18 Cloudy with Heavy Rain 48 9 46 8 94 94 N 7 11 29.94 1014 1.75 2.816345 0 0
5:27 am 05:27 Cloudy with Heavy Rain 48 8.9 47 8.3 96 96 NNE 6 9 29.94 1014 3 4.82802 0.29 7.366
5:35 am 05:35 Cloudy with Heavy Rain 48 8.9 47 8.3 96 96 ENE 6 9 29.94 1014 3 4.82802 0.35 8.89
5:53 am 05:53 Cloudy with Heavy Rain 48 8.9 47 8.3 96 96 ENE 7 11 29.96 1014 4 6.43736 0.45 11.43
6:09 am 06:09 Cloudy with Heavy Rain 47 8.3 47 8.3 100 100 NE 26 43 29.88 1012 2.5 4.02335 0.15 3.81
6:19 am 06:19 Cloudy with Light Rain 48 8.9 47 8.3 96 96 NE 25 41 29.83 1010 6 9.65604 0.17 4.318
6:53 am 06:53 Cloudy 48 8.9 46 7.8 93 93 NE 21 33 29.87 1011 10 16.0934 0.17 4.318
7:53 am 07:53 Cloudy 47 8.3 45 7.2 93 93 ENE 18 30 29.9 1013 10 16.0934 0 0
8:14 am 08:14 Cloudy with Light Rain 46 8 45 7 93 93 ENE 21 33 29.91 1013 9 14.48406 0 0
8:46 am 08:46 Cloudy with Rain 47 8.3 46 7.8 97 97 ENE 17 28 29.91 1013 2.5 4.02335 0.03 0.762
8:53 am 08:53 Cloudy with Rain 48 8.9 47 8.3 96 96 E 16 26 29.92 1013 3 4.82802 0.05 1.27
9:20 am 09:20 Cloudy with Heavy Rain 48 9 46 8 94 94 E 10 17 29.91 1013 1.75 2.816345 0 0
9:32 am 09:32 Cloudy with Heavy Rain 48 9 46 8 94 94 E 13 20 29.91 1013 1.75 2.816345 0 0
9:53 am 09:53 Cloudy with Heavy Rain 48 8.9 47 8.3 96 96 E 20 31 29.92 1013 2.5 4.02335 0.36 9.144
10:16 am 10:16 Cloudy with Rain 47 8.3 46 7.8 97 97 E 12 19 29.94 1014 3 4.82802 0.15 3.81
10:24 am 10:24 Cloudy with Heavy Rain 46 8 46 8 100 100 ENE 12 19 29.94 1014 2.5 4.02335 0 0
10:36 am 10:36 Cloudy with Rain 46 8 46 8 100 100 E 13 20 29.94 1014 4 6.43736 0 0
10:44 am 10:44 Cloudy with Rain 46 8 46 8 100 100 E 13 20 29.94 1014 3 4.82802 0 0
10:53 am 10:53 Cloudy with Rain 47 8.3 46 7.8 97 97 E 13 20 29.95 1014 2.5 4.02335 0.29 7.366
11:10 am 11:10 Cloudy with Rain 46 8 45 7 93 93 ENE 13 20 29.94 1014 3 4.82802 0 0
11:53 am 11:53 Cloudy with Rain 46 7.8 44 6.7 93 93 ENE 18 30 29.93 1014 5 8.0467 0.24 6.096
12:53 pm 12:53 Cloudy with Light Rain 46 7.8 43 6.1 89 89 ENE 20 31 29.91 1013 6 9.65604 0.04 1.016
1:53 pm 13:53 Cloudy with Light Rain 44 6.7 41 5 89 89 ENE 18 30 29.9 1013 10 16.0934 0.02 0.508
2:31 pm 14:31 Cloudy with Rain 43 6.1 41 5 93 93 ENE 22 35 29.94 1014 3 4.82802 0.07 1.778
2:53 pm 14:53 Cloudy with Rain 41 5 39 3.9 93 93 NNE 23 37 29.9 1013 4 6.43736 0.1 2.54
2:56 pm 14:56 Cloudy with Heavy Rain 41 5 39 3.9 93 93 NE 22 35 29.97 1015 2.5 4.02335 0.01 0.254
3:09 pm 15:09 Cloudy with Light Rain 40 4.4 37 2.8 89 89 NE 22 35 29.97 1015 7 11.26538 0.03 0.762
3:35 pm 15:35 Cloudy with Rain 37 2.8 35 1.7 93 93 NE 22 35 30 1016 4 6.43736 0.07 1.778
3:53 pm 15:53 Cloudy with Light Rain 36 2.2 34 1.1 93 93 NE 22 35 29.93 1014 5 8.0467 0.09 2.286
4:53 pm 16:53 Cloudy with Light Rain 36 2.2 33 0.6 89 89 NNE 24 39 29.93 1014 10 16.0934 0.01 0.254
5:13 pm 17:13 Cloudy with Light Snow 35 1.7 32 0 89 89 NE 15 24 30.09 1019 1.75 2.816345 0.03 0.762
5:18 pm 17:18 Cloudy with Light Snow 34 1 32 0 93 93 NNE 8 13 30.09 1019 0.75 1.207005 0 0
5:27 pm 17:27 Cloudy with Heavy Rain 34 1.1 32 0 92 92 Calm 30.12 1020 1 1.60934 0.08 2.032
5:41 pm 17:41 Cloudy with Light Snow 34 1.1 32 0 92 92 NNE 9 15 30.12 1020 0.75 1.207005 0.12 3.048
5:43 pm 17:43 Cloudy with Light Snow 34 1.1 32 0 92 92 NNE 15 24 30.12 1020 1 1.60934 0.13 3.302
5:53 pm 17:53 Cloudy with Light Snow 34 1.1 32 0 92 92 NNE 13 20 30.03 1017 1.25 2.011675 0.13 3.302
6:03 pm 18:03 Cloudy with Light Snow 34 1 32 0 93 93 NNE 16 26 30.12 1020 0.75 1.207005 0 0
6:17 pm 18:17 Cloudy with Light Snow 33 0.6 32 0 96 96 NE 14 22 30.12 1020 0.75 1.207005 0.02 0.508
6:27 pm 18:27 Mostly Cloudy with Scattered Snow Showers 33 0.6 32 0 96 96 NE 8 13 30.12 1020 1 1.60934 0.03 0.762
6:41 pm 18:41 Cloudy with Light Snow 33 0.6 31 -0.6 92 92 NNE 14 22 30.12 1020 2 3.21868 0.03 0.762
6:49 pm 18:49 Cloudy with Light Snow 34 1 30 -1 87 87 NNE 10 17 30.12 1020 4 6.43736 0.03 0.762
6:53 pm 18:53 Cloudy with Light Snow 33 0.6 31 -0.6 92 92 N 8 13 30.04 1017 2.5 4.02335 0.03 0.762
7:05 pm 19:05 Cloudy with Light Snow 33 0.6 31 -0.6 92 92 N 12 19 30.12 1020 1.75 2.816345 0.01 0.254
7:53 pm 19:53 Cloudy with Light Snow 32 0 30 -1.1 92 92 N 9 15 30.04 1017 1.25 2.011675 0.01 0.254
8:05 pm 20:05 Cloudy with Light Snow 32 0 30 -1.1 92 92 N 14 22 30.15 1021 2 3.21868 0.01 0.254
8:14 pm 20:14 Cloudy with Light Snow 32 0 30 -1 93 93 NNE 10 17 30.15 1021 5 8.0467 0 0
8:44 pm 20:44 Windy with Snow Likely 30 -1 28 -2 93 93 NNE 20 31 30.15 1021 1.75 2.816345 0 0
8:53 pm 20:53 Cloudy with Light Snow 31 -0.6 28 -2.2 89 89 NNE 18 30 30.04 1017 1.5 2.41401 0.01 0.254
9:01 pm 21:01 Windy with Snow Likely 30 -1 28 -2 93 93 NNE 21 33 30.15 1021 1.25 2.011675 0 0
9:13 pm 21:13 Windy with Snow Likely 30 -1.1 28 -2.2 92 92 N 20 31 30.12 1020 1.25 2.011675 0.01 0.254
9:28 pm 21:28 Windy with Snow Likely 30 -1 28 -2 93 93 N 22 35 30.12 1020 2 3.21868 0 0
9:37 pm 21:37 Cloudy with Light Snow 31 -0.6 28 -2.2 89 89 N 16 26 30.12 1020 1.75 2.816345 0.01 0.254
9:53 pm 21:53 Cloudy with Light Snow 31 -0.6 28 -2.2 89 89 N 18 30 30.03 1017 2.5 4.02335 0.01 0.254
10:10 pm 22:10 Windy with Snow Likely 30 -1 28 -2 93 93 N 20 31 30.12 1020 3 4.82802 0 0
10:21 pm 22:21 Cloudy with Light Snow 31 -0.6 28 -2.2 89 89 N 16 26 30.12 1020 2 3.21868 0 0.0254
10:29 pm 22:29 Cloudy with Light Snow 31 -0.6 29 -1.7 92 92 N 9 15 30.12 1020 1.25 2.011675 0.01 0.254
10:53 pm 22:53 Cloudy with Light Snow 31 -0.6 29 -1.7 92 92 N 12 19 30.03 1017 1.5 2.41401 0.02 0.508
11:05 pm 23:05 Cloudy with Light Snow 31 -0.6 28 -2.2 89 89 N 13 20 30.12 1020 2.5 4.02335 0.01 0.254
11:28 pm 23:28 Cloudy with Light Snow 30 -1 28 -2 93 93 N 13 20 30.12 1020 3 4.82802 0 0
11:53 pm 23:53 Cloudy with Light Snow 31 -0.6 29 -1.7 92 92 N 17 28 30.01 1016 3 4.82802 0.01 0.254

Powered by AerisWeather